FW6626 Weather Reports


time (UTC)temp
C
wind
direction
speed
KPH
gust
KPH
rain 1hr
cm
rain 24hr
cm
rain mn
cm
humidity
%
barometer
mb
20260902120058 17 47 3.2 8.0 0.00 0.00 0.00 86 1015.9
20260902114600 17 48 3.2 8.0 0.00 0.00 0.00 86 1015.9
20260902113109 17 46 3.2 8.0 0.00 0.00 0.00 86 1016.0
20260902111602 17 46 3.2 6.4 0.00 0.00 0.00 85 1016.0
20260902104602 18 52 3.2 6.4 0.00 0.00 0.00 85 1016.0
20260902103100 18 49 4.8 9.7 0.00 0.00 0.00 85 1016.1
20260902101557 18 42 3.2 8.0 0.00 0.00 0.00 84 1016.2
20260902100056 18 32 3.2 6.4 0.00 0.00 0.00 84 1016.3
20260902094558 18 25 3.2 6.4 0.00 0.00 0.00 84 1016.3
20260902093057 18 20 0.0 4.8 0.00 0.00 0.00 84 1016.4
20260902091605 18 20 3.2 4.8 0.00 0.00 0.00 84 1016.5
20260902090059 18 350 3.2 4.8 0.00 0.00 0.00 84 1016.5
20260902084604 18 0 0.0 0.0 0.00 0.00 0.00 84 1016.7
20260902083103 18 0 0.0 0.0 0.00 0.00 0.00 83 1016.6
20260902081603 19 0 0.0 0.0 0.00 0.00 0.00 84 1016.5
20260902080059 19 0 0.0 0.0 0.00 0.00 0.00 84 1016.5
20260902074610 18 0 0.0 0.0 0.00 0.00 0.00 84 1016.5
20260902073101 18 0 0.0 0.0 0.00 0.00 0.00 84 1016.5
20260902071601 18 0 0.0 0.0 0.00 0.00 0.00 84 1016.4
20260902070057 18 0 0.0 0.0 0.00 0.00 0.00 83 1016.3
20260902064557 19 0 0.0 0.0 0.00 0.00 0.00 83 1016.3
20260902063111 19 0 0.0 0.0 0.00 0.00 0.00 83 1016.2
20260902060108 19 0 0.0 0.0 0.00 0.00 0.00 83 1016.1
20260902054606 19 0 0.0 0.0 0.00 0.00 0.00 82 1016.0
20260902053057 20 0 0.0 0.0 0.00 0.00 0.00 82 1016.1
20260902051559 20 0 0.0 0.0 0.00 0.00 0.00 82 1016.2
20260902050055 20 0 0.0 0.0 0.00 0.00 0.00 82 1016.2
20260902044607 20 0 0.0 0.0 0.00 0.00 0.00 82 1016.2
20260902043111 20 0 0.0 1.6 0.00 0.00 0.00 82 1016.1
20260902041605 20 0 0.0 0.0 0.00 0.00 0.00 82 1015.9
20260902040057 20 0 0.0 1.6 0.00 0.00 0.00 82 1015.5
20260902034614 20 0 0.0 3.2 0.00 0.00 0.00 82 1015.1
20260902033101 20 284 0.0 3.2 0.00 0.00 0.00 82 1015.0
20260902031605 20 0 1.6 4.8 0.00 0.00 0.00 81 1014.7
20260902030100 21 0 1.6 11.3 0.00 0.00 0.00 81 1014.5
20260902024600 21 0 0.0 9.7 0.00 0.00 0.00 81 1014.4
20260902023054 21 257 1.6 9.7 0.00 0.00 0.00 80 1014.4
20260902021608 21 269 3.2 14.5 0.00 0.00 0.00 78 1014.3
20260902014557 22 227 3.2 11.3 0.00 0.00 0.00 75 1014.5
20260902013059 22 311 4.8 12.9 0.00 0.00 0.00 76 1014.4
20260902011553 23 360 3.2 12.9 0.00 0.00 0.00 71 1014.4
20260902010059 24 239 3.2 14.5 0.00 0.00 0.00 70 1014.3
20260902004559 23 360 6.4 17.7 0.00 0.00 0.00 72 1014.4
20260902003134 23 249 4.8 17.7 0.00 0.00 0.00 70 1014.4
20260902001600 23 261 9.7 17.7 0.00 0.00 0.00 71 1014.4
20260902000059 23 360 6.4 17.7 0.00 0.00 0.00 71 1014.7
20260901234555 23 360 9.7 20.9 0.00 0.00 0.00 72 1014.8
20260901233059 23 256 12.9 20.9 0.00 0.00 0.00 71 1015.0
20260901231605 23 264 12.9 24.1 0.00 0.00 0.00 70 1015.0
20260901230056 23 248 12.9 27.4 0.00 0.00 0.00 71 1015.2
20260901224605 23 360 14.5 25.7 0.00 0.00 0.00 72 1015.0
20260901223056 23 263 16.1 27.4 0.00 0.00 0.00 72 1015.2
20260901221601 23 253 16.1 22.5 0.00 0.00 0.00 73 1015.2
20260901220100 23 244 12.9 25.7 0.00 0.00 0.00 71 1015.4
20260901214603 23 276 14.5 25.7 0.00 0.00 0.00 71 1015.5
20260901213059 23 360 11.3 22.5 0.00 0.00 0.00 71 1015.7
20260901211600 23 258 14.5 27.4 0.00 0.00 0.00 71 1015.8
20260901210127 24 275 11.3 24.1 0.00 0.00 0.00 70 1015.8
20260901204554 25 360 9.7 24.1 0.00 0.00 0.00 69 1015.8
20260901203052 24 273 9.7 24.1 0.00 0.00 0.00 69 1015.8
20260901201601 24 274 11.3 22.5 0.00 0.00 0.00 69 1015.8
20260901200052 24 262 9.7 22.5 0.00 0.00 0.00 70 1016.0
20260901194606 23 360 12.9 22.5 0.00 0.00 0.00 70 1016.1
20260901193105 24 259 11.3 24.1 0.00 0.00 0.00 68 1016.2
20260901191615 24 247 9.7 17.7 0.00 0.00 0.00 68 1016.2
20260901190134 24 285 8.0 20.9 0.00 0.00 0.00 71 1016.2
20260901184556 24 247 9.7 17.7 0.00 0.00 0.00 70 1016.3
20260901183059 24 307 6.4 17.7 0.00 0.00 0.00 68 1016.4
20260901181600 24 268 9.7 19.3 0.00 0.00 0.00 70 1016.5
20260901174557 24 269 8.0 17.7 0.00 0.00 0.00 68 1016.4
20260901173055 24 276 4.8 12.9 0.00 0.00 0.00 67 1016.3
20260901171633 24 291 4.8 12.9 0.00 0.00 0.00 68 1016.2
20260901170105 24 232 3.2 12.9 0.00 0.00 0.00 68 1016.2
20260901164612 25 298 1.6 6.4 0.00 0.00 0.00 66 1016.1
20260901163117 24 236 3.2 8.0 0.00 0.00 0.00 69 1016.2
20260901161603 23 304 3.2 8.0 0.00 0.00 0.00 72 1016.1
20260901160056 22 335 3.2 9.7 0.00 0.00 0.00 76 1016.0
20260901154558 21 291 3.2 8.0 0.00 0.00 0.00 75 1016.0
20260901153057 22 321 4.8 12.9 0.00 0.00 0.00 75 1015.9
20260901151601 22 0 1.6 6.4 0.00 0.00 0.00 74 1015.8
20260901144556 22 29 3.2 6.4 0.00 0.00 0.00 75 1015.6
20260901143057 21 0 1.6 4.8 0.00 0.00 0.00 78 1015.7
20260901141601 20 42 0.0 4.8 0.00 0.00 0.00 82 1015.7
20260901134602 18 38 1.6 3.2 0.00 0.00 0.00 85 1015.4
20260901133104 18 38 0.0 3.2 0.00 0.00 0.00 85 1015.2
20260901131556 18 37 1.6 6.4 0.00 0.00 0.00 85 1015.0
20260901130101 18 5 3.2 6.4 0.00 0.00 0.00 85 1014.8
20260901124554 18 327 1.6 4.8 0.00 0.00 0.00 85 1014.6
20260901123103 18 327 0.0 4.8 0.00 0.00 0.00 85 1014.5
20260901121558 18 327 1.6 6.4 0.00 0.00 0.00 84 1014.6